This demonstration page uses our WeatherBlox Daily Observations layout. Learn more.

Left ArrowRight Arrow

53.62937, 11.41316

Hourly Observations for January 27, 2016

Temp ( °F °C ) Dew Point ( °F °C ) Humidity (%) Winds ( mph kmh ) Pressure ( in mb ) Visibility ( mi km ) Precip ( " mm )
5:20 am 05:20 Mostly Cloudy 46 8 46 8 100 100 SW 20 31 29.85 1011 4 6 N/A
5:50 am 05:50 Mostly Cloudy 48 9 46 8 94 94 SW 18 30 29.85 1011 6 9 N/A
6:20 am 06:20 Mostly Cloudy 48 9 46 8 94 94 SW 20 31 29.85 1011 5 8 N/A
6:50 am 06:50 Cloudy 48 9 46 8 94 94 SW 20 31 29.85 1011 30 48 N/A
7:20 am 07:20 Mostly Cloudy with Drizzle 48 9 46 8 94 94 SW 18 30 29.85 1011 4 6 N/A
7:50 am 07:50 Mostly Cloudy with Drizzle 48 9 46 8 94 94 SW 17 28 29.85 1011 3 4 N/A
8:20 am 08:20 Mostly Cloudy 48 9 46 8 94 94 SW 18 30 29.85 1011 30 48 N/A
8:50 am 08:50 Mostly Cloudy 48 9 46 8 94 94 SW 18 30 29.85 1011 30 48 N/A
9:20 am 09:20 Mostly Cloudy 50 10 46 8 88 88 SW 17 28 29.85 1011 30 48 N/A
9:50 am 09:50 Mostly Cloudy 50 10 46 8 88 88 SW 15 24 29.85 1011 30 48 N/A
10:20 am 10:20 Mostly Cloudy 50 10 46 8 88 88 SW 15 24 29.85 1011 30 48 N/A
10:50 am 10:50 Cloudy 50 10 46 8 88 88 SW 15 24 29.85 1011 5 8 N/A
11:20 am 11:20 Cloudy 50 10 46 8 88 88 SSW 16 26 29.85 1011 30 48 N/A
11:50 am 11:50 Cloudy 52 11 46 8 82 82 SW 16 26 29.85 1011 30 48 N/A
12:20 pm 12:20 Cloudy 52 11 46 8 82 82 SW 18 30 29.85 1011 30 48 N/A
12:50 pm 12:50 Cloudy with Drizzle 50 10 48 9 94 94 SSW 18 30 29.83 1010 4 6 N/A
1:20 pm 13:20 Cloudy 50 10 46 8 88 88 SSW 18 30 29.80 1009 30 48 N/A
1:50 pm 13:50 Cloudy 52 11 46 8 82 82 SW 16 26 29.83 1010 30 48 N/A
2:20 pm 14:20 Cloudy 52 11 46 8 82 82 SSW 17 28 29.80 1009 30 48 N/A
2:50 pm 14:50 Cloudy 52 11 46 8 82 82 SW 16 26 29.80 1009 30 48 N/A
3:20 pm 15:20 Cloudy 52 11 46 8 82 82 SW 18 30 29.80 1009 30 48 N/A
3:50 pm 15:50 Cloudy 52 11 46 8 82 82 SW 22 35 29.80 1009 30 48 N/A
3:54 pm 15:54 Cloudy 52 11 46 8 82 82 SW 21 33 29.80 1009 30 48 N/A
4:20 pm 16:20 Cloudy 52 11 46 8 82 82 SW 18 30 29.80 1009 30 48 N/A
4:50 pm 16:50 Cloudy 52 11 46 8 82 82 SW 21 33 29.80 1009 30 48 N/A
5:20 pm 17:20 Cloudy 52 11 46 8 82 82 SW 18 30 29.80 1009 30 48 N/A
5:50 pm 17:50 Cloudy 52 11 46 8 82 82 SW 23 37 29.80 1009 30 48 N/A

Powered by AerisWeather